VICTUS HAZE PUMA

Last updated on Thu Sep 24 2026 00:04:00 GMT+0000 (Coordinated Universal Time)

1 69646U 26142A 26266.56188791 .00007365 00000+0 32977-3 0 9994 2 69646 97.4514 163.0465 0019489 116.2683 244.0559 15.21388387 14624
UTC large
Height (km)
Speed (km/s)
/
Latitude / Longitude
Inclination (degrees)
Orbital Period (minutes)
Azimuth
Elevation
Range (km)
Doppler Factor

Next 0 passes for location: London (51.5072 / 0.1276)

No passes found over London.
VICTUS HAZE PUMA